When you browse on this site, cookies collect data to enhance your experience and personalize the content and advertising you see.
Visit our Privacy Policy to learn more. By continuing to use the site, you agree to this use of cookies and data.
  • en Suisse
  • Liste des pays
  • À 7 jours
  • Température de l'eau
  • Carte météo
  • Widgets météo
  • user-avatar
    Se connecter

    Météo par heure à Pirna

    Ce jour, 7 Juin, Dimanche

    Heure Température Précipitation Vent Pression Humidité
    00:00 +12°C° 0 mm 2 m/s 744 mmHg 89%
    01:00 +12°C° 0 mm 2 m/s 744 mmHg 90%
    02:00 +12°C° 0 mm 2 m/s 744 mmHg 90%
    03:00 +13°C° 0 mm 2 m/s 744 mmHg 90%
    04:00 +13°C° 0 mm 2 m/s 744 mmHg 90%
    05:00 +14°C° 0.1 mm 2 m/s 744 mmHg 90%
    06:00 +15°C° 0.1 mm 2 m/s 744 mmHg 89%
    07:00 +14°C° 0.1 mm 3 m/s 744 mmHg 89%
    08:00 +16°C° 0.1 mm 2 m/s 744 mmHg 86%
    09:00 +17°C° 0.1 mm 2 m/s 744 mmHg 84%
    10:00 +17°C° 0.1 mm 2 m/s 745 mmHg 82%
    11:00 +18°C° 0.4 mm 1 m/s 745 mmHg 84%
    12:00 +18°C° 0.4 mm 1 m/s 745 mmHg 85%
    13:00 +18°C° 0.4 mm 1 m/s 745 mmHg 86%
    14:00 +18°C° 0 mm 1 m/s 745 mmHg 85%
    15:00 +17°C° 0 mm 2 m/s 745 mmHg 84%
    16:00 +17°C° 0 mm 2 m/s 745 mmHg 83%
    17:00 +17°C° 0 mm 2 m/s 745 mmHg 83%
    18:00 +16°C° 0 mm 3 m/s 745 mmHg 84%
    19:00 +14°C° 0 mm 3 m/s 745 mmHg 85%
    20:00 +13°C° 0.4 mm 3 m/s 746 mmHg 86%
    21:00 +12°C° 0.4 mm 3 m/s 746 mmHg 88%
    22:00 +12°C° 0.4 mm 3 m/s 746 mmHg 89%
    23:00 +13°C° 0.8 mm 2 m/s 747 mmHg 90%

    Demain, 8 Juin, Lundi

    Heure Température Précipitation Vent Pression Humidité
    00:00 +12°C° 0.8 mm 2 m/s 747 mmHg 91%
    01:00 +12°C° 0.8 mm 1 m/s 747 mmHg 92%
    02:00 +12°C° 0.6 mm 1 m/s 747 mmHg 92%
    03:00 +12°C° 0.6 mm 1 m/s 747 mmHg 92%
    04:00 +12°C° 0.6 mm 1 m/s 747 mmHg 92%
    05:00 +12°C° 0 mm 1 m/s 747 mmHg 91%
    06:00 +13°C° 0 mm 1 m/s 747 mmHg 90%
    07:00 +13°C° 0 mm 2 m/s 748 mmHg 88%
    08:00 +15°C° 0 mm 2 m/s 748 mmHg 81%
    09:00 +16°C° 0 mm 2 m/s 748 mmHg 74%
    10:00 +18°C° 0 mm 3 m/s 748 mmHg 67%
    11:00 +18°C° 0.1 mm 3 m/s 748 mmHg 63%
    12:00 +19°C° 0.1 mm 3 m/s 748 mmHg 60%
    13:00 +20°C° 0.1 mm 3 m/s 748 mmHg 56%
    14:00 +20°C° 0 mm 2 m/s 748 mmHg 55%
    15:00 +20°C° 0 mm 2 m/s 748 mmHg 55%
    16:00 +20°C° 0 mm 2 m/s 748 mmHg 54%
    17:00 +19°C° 0 mm 2 m/s 748 mmHg 60%
    18:00 +19°C° 0 mm 2 m/s 748 mmHg 65%
    19:00 +19°C° 0 mm 1 m/s 748 mmHg 71%
    20:00 +16°C° 0 mm 1 m/s 748 mmHg 75%
    21:00 +15°C° 0 mm 1 m/s 749 mmHg 78%
    22:00 +12°C° 0 mm 0 m/s 749 mmHg 82%
    23:00 +12°C° 0 mm 0 m/s 749 mmHg 83%

    Après-demain, 9 Juin, Mardi

    Heure Température Précipitation Vent Pression Humidité
    00:00 +11°C° 0 mm 0 m/s 749 mmHg 85%
    01:00 +11°C° 0 mm 0 m/s 749 mmHg 86%
    02:00 +10°C° 0 mm 0 m/s 749 mmHg 87%
    03:00 +10°C° 0 mm 0 m/s 750 mmHg 87%
    04:00 +10°C° 0 mm 0 m/s 750 mmHg 88%
    05:00 +13°C° 0 mm 1 m/s 750 mmHg 83%
    06:00 +14°C° 0 mm 1 m/s 750 mmHg 78%
    07:00 +16°C° 0 mm 1 m/s 750 mmHg 73%
    08:00 +17°C° 0 mm 2 m/s 750 mmHg 69%
    09:00 +18°C° 0 mm 2 m/s 750 mmHg 65%
    10:00 +20°C° 0 mm 3 m/s 750 mmHg 61%
    11:00 +20°C° 0.1 mm 3 m/s 750 mmHg 60%
    12:00 +21°C° 0.1 mm 4 m/s 750 mmHg 58%
    13:00 +21°C° 0.1 mm 4 m/s 750 mmHg 56%
    14:00 +21°C° 0 mm 4 m/s 750 mmHg 56%
    15:00 +21°C° 0 mm 4 m/s 750 mmHg 57%
    16:00 +21°C° 0 mm 4 m/s 749 mmHg 57%
    17:00 +20°C° 0 mm 3 m/s 749 mmHg 63%
    18:00 +19°C° 0 mm 3 m/s 749 mmHg 69%
    19:00 +18°C° 0 mm 2 m/s 749 mmHg 75%
    20:00 +17°C° 0 mm 2 m/s 750 mmHg 79%
    21:00 +16°C° 0 mm 2 m/s 750 mmHg 84%
    22:00 +15°C° 0 mm 2 m/s 750 mmHg 89%
    23:00 +14°C° 0 mm 2 m/s 750 mmHg 90%

    10 Juin, Mercredi

    Heure Température Précipitation Vent Pression Humidité
    00:00 +14°C° 0 mm 1 m/s 750 mmHg 91%
    01:00 +13°C° 0 mm 1 m/s 750 mmHg 92%
    02:00 +13°C° 0 mm 1 m/s 750 mmHg 92%
    03:00 +13°C° 0 mm 1 m/s 750 mmHg 92%
    04:00 +14°C° 0 mm 1 m/s 750 mmHg 92%
    05:00 +14°C° 0.1 mm 2 m/s 750 mmHg 92%
    06:00 +14°C° 0.1 mm 2 m/s 750 mmHg 93%
    07:00 +15°C° 0.1 mm 2 m/s 750 mmHg 93%
    08:00 +15°C° 0.1 mm 2 m/s 750 mmHg 92%
    09:00 +15°C° 0.1 mm 2 m/s 750 mmHg 91%
    10:00 +15°C° 0.1 mm 2 m/s 750 mmHg 89%
    11:00 +16°C° 0 mm 2 m/s 750 mmHg 85%
    12:00 +16°C° 0 mm 2 m/s 750 mmHg 81%
    13:00 +17°C° 0 mm 2 m/s 749 mmHg 77%
    14:00 +18°C° 0 mm 2 m/s 749 mmHg 74%
    15:00 +18°C° 0 mm 3 m/s 749 mmHg 71%
    16:00 +19°C° 0 mm 3 m/s 749 mmHg 68%
    17:00 +18°C° 0 mm 3 m/s 749 mmHg 72%
    18:00 +18°C° 0 mm 2 m/s 748 mmHg 77%
    19:00 +17°C° 0 mm 2 m/s 748 mmHg 82%
    20:00 +16°C° 0.1 mm 2 m/s 748 mmHg 85%
    21:00 +16°C° 0.1 mm 1 m/s 749 mmHg 88%
    22:00 +15°C° 0.1 mm 1 m/s 749 mmHg 91%
    23:00 +15°C° 0.1 mm 1 m/s 748 mmHg 93%

    11 Juin, Jeudi

    Heure Température Précipitation Vent Pression Humidité
    00:00 +15°C° 0.1 mm 1 m/s 748 mmHg 95%
    01:00 +15°C° 0.1 mm 1 m/s 748 mmHg 97%
    02:00 +15°C° 0.2 mm 1 m/s 748 mmHg 97%
    03:00 +15°C° 0.2 mm 1 m/s 748 mmHg 97%
    04:00 +15°C° 0.2 mm 1 m/s 747 mmHg 97%
    05:00 +14°C° 0.3 mm 1 m/s 747 mmHg 97%
    06:00 +14°C° 0.3 mm 2 m/s 747 mmHg 97%
    07:00 +14°C° 0.3 mm 2 m/s 747 mmHg 97%
    08:00 +15°C° 0.2 mm 2 m/s 747 mmHg 96%
    09:00 +15°C° 0.2 mm 2 m/s 747 mmHg 95%
    10:00 +15°C° 0.2 mm 2 m/s 747 mmHg 94%
    11:00 +16°C° 0 mm 2 m/s 747 mmHg 91%
    12:00 +17°C° 0 mm 2 m/s 747 mmHg 89%
    13:00 +17°C° 0 mm 2 m/s 747 mmHg 86%
    14:00 +18°C° 0 mm 2 m/s 747 mmHg 85%
    15:00 +18°C° 0 mm 2 m/s 746 mmHg 85%
    16:00 +18°C° 0 mm 3 m/s 746 mmHg 84%
    17:00 +18°C° 0 mm 2 m/s 746 mmHg 85%
    18:00 +18°C° 0 mm 2 m/s 746 mmHg 85%
    19:00 +18°C° 0 mm 2 m/s 746 mmHg 86%
    20:00 +17°C° 0 mm 2 m/s 746 mmHg 89%
    21:00 +16°C° 0 mm 2 m/s 746 mmHg 92%
    22:00 +15°C° 0 mm 1 m/s 746 mmHg 95%
    23:00 +15°C° 0 mm 1 m/s 746 mmHg 96%

    12 Juin, Vendredi

    Heure Température Précipitation Vent Pression Humidité
    00:00 +14°C° 0 mm 1 m/s 746 mmHg 96%
    01:00 +14°C° 0 mm 1 m/s 745 mmHg 97%
    02:00 +14°C° 0 mm 1 m/s 745 mmHg 97%
    03:00 +14°C° 0 mm 1 m/s 745 mmHg 97%
    04:00 +14°C° 0 mm 1 m/s 745 mmHg 98%
    05:00 +15°C° 0 mm 1 m/s 745 mmHg 95%
    06:00 +16°C° 0 mm 1 m/s 746 mmHg 93%
    07:00 +18°C° 0 mm 1 m/s 746 mmHg 90%
    08:00 +19°C° 0 mm 1 m/s 746 mmHg 86%
    09:00 +20°C° 0 mm 2 m/s 746 mmHg 81%
    10:00 +21°C° 0 mm 2 m/s 745 mmHg 76%
    11:00 +23°C° 0.1 mm 2 m/s 745 mmHg 72%
    12:00 +24°C° 0.1 mm 2 m/s 745 mmHg 69%
    13:00 +26°C° 0.1 mm 3 m/s 744 mmHg 65%
    14:00 +25°C° 0.9 mm 3 m/s 744 mmHg 69%
    15:00 +25°C° 0.9 mm 3 m/s 744 mmHg 73%
    16:00 +25°C° 0.9 mm 3 m/s 744 mmHg 77%
    17:00 +24°C° 0.8 mm 3 m/s 744 mmHg 80%
    18:00 +24°C° 0.8 mm 2 m/s 743 mmHg 84%
    19:00 +23°C° 0.8 mm 2 m/s 743 mmHg 88%
    20:00 +22°C° 0.4 mm 1 m/s 743 mmHg 89%
    21:00 +21°C° 0.4 mm 1 m/s 743 mmHg 91%
    22:00 +20°C° 0.4 mm 1 m/s 743 mmHg 93%
    23:00 +19°C° 0 mm 1 m/s 743 mmHg 93%
    Voir plus